This is the latest recevied weather packets stored in our database for station/object WX1N. If no packets are shown the sender has not sent any weather packets the latest 10 day(s).
| Time | Temp. | Humidity | Pressure | Rain* | Wind** | Luminosity | Snow |
|---|---|---|---|---|---|---|---|
| 1777373703 | 2.78° C | 80% | 1021.3 hPa | 0 mm | - | - | - |
| 1777373402 | 2.78° C | 81% | 1021.2 hPa | 0 mm | - | - | - |
| 1777373103 | 2.22° C | 81% | 1021.2 hPa | 0 mm | - | - | - |
| 1777372804 | 2.22° C | 82% | 1021.2 hPa | 0 mm | - | - | - |
| 1777372503 | 1.67° C | 82% | 1021.3 hPa | 0 mm | - | - | - |
| 1777372203 | 1.67° C | 83% | 1021.3 hPa | 0 mm | - | - | - |
| 1777371904 | 1.67° C | 83% | 1021.3 hPa | 0 mm | - | - | - |
| 1777371603 | 1.67° C | 83% | 1021.4 hPa | 0 mm | - | - | - |
| 1777371303 | 1.67° C | 83% | 1021.4 hPa | 0 mm | - | - | - |
| 1777371003 | 1.11° C | 84% | 1021.3 hPa | 0 mm | - | - | - |
| 1777370703 | 1.11° C | 84% | 1021.3 hPa | 0 mm | - | - | - |
| 1777370404 | 1.11° C | 84% | 1021.3 hPa | 0 mm | - | - | - |
| 1777370103 | 1.11° C | 85% | 1021.2 hPa | 0 mm | - | - | - |
| 1777369803 | 1.11° C | 86% | 1021 hPa | 0 mm | - | - | - |
| 1777369503 | 1.11° C | 86% | 1021 hPa | 0 mm | - | - | - |
| 1777369203 | 1.11° C | 86% | 1021 hPa | 0 mm | - | - | - |
| 1777368904 | 1.67° C | 86% | 1021.1 hPa | 0 mm | - | - | - |
| 1777368603 | 1.67° C | 84% | 1021.1 hPa | 0 mm | - | - | - |
| 1777368303 | 2.22° C | 84% | 1021 hPa | 0 mm | - | - | - |
| 1777368003 | 1.67° C | 85% | 1020.9 hPa | 0 mm | - | - | - |
| 1777367703 | 1.67° C | 85% | 1021 hPa | 0 mm | - | - | - |
| 1777367403 | 1.67° C | 85% | 1021.1 hPa | 0 mm | - | - | - |
| 1777367103 | 1.67° C | 85% | 1021.1 hPa | 0 mm | - | - | - |
| 1777366803 | 1.67° C | 86% | 1020.9 hPa | 0 mm | - | - | - |
| 1777366503 | 1.67° C | 86% | 1020.9 hPa | 0 mm | - | - | - |
* Rain latest hour (hover to see other rain measurements)
** Current wind speed in m/s (hover to see current wind gust speed)